[[{"header":{"parameterUnit":"m.s-1","parameterCategory":1,"la1":30.2992,"la2":30.254,"lo1":-89.0895,"lo2":-89.0443,"dy":0.0025,"dx":0.0025,"nx":19,"ny":19,"refTime":"2026-03-19T09:00:00:Z","depth":0,"parameterNumber":2,"parameterNumberName":"U-component_of_WINDS"},"data":[0,0,0,0.6722,0.6723,0.6752,0.6752,0.6804,0.6805,0,0,0,0,0,0,0,0,0,0,0,0.6723,0.6724,0.6722,0.6723,0.6752,0.6752,0.6804,0.6805,0,0,0,0,0,0,0,0,0,0,0,0.6723,0.6724,0.6725,0.6724,0.6752,0.6752,0.6804,0.6777,0,0,0,0,0,0,0,0,0,0,0.6746,0.6756,0.6724,0.6725,0.6724,0.6752,0.6752,0.6775,0.6778,0.6798,0,0.6817,0,0.6812,0.6809,0.6809,0,0,0,0.6716,0.6754,0.6753,0.6725,0.6724,0.6752,0.6737,0.6777,0.6781,0.6802,0.6818,0.682,0.6813,0.681,0.681,0.6944,0.6945,0,0,0.6715,0.6734,0.675,0.6756,0.6752,0.6736,0.6738,0.6779,0.6797,0.6818,0.682,0.6814,0.681,0.6811,0.6943,0.6944,0,0,0,0.6715,0.6733,0.6731,0.6754,0.6758,0.6737,0.6739,0.6796,0.6793,0.6821,0.6814,0.6811,0.6811,0.6942,0.6944,0.7009,0,0,0,0.6714,0.6733,0.673,0.6742,0.6758,0.6777,0.6756,0.6791,0.6794,0.6814,0.6811,0.6812,0.6941,0.6943,0.7005,0.7037,0,0,0,0.6718,0.6733,0.6741,0.6743,0.6756,0.6776,0.6776,0.6791,0.6791,0.681,0.6812,0.694,0.6943,0.7001,0.7031,0.7077,0,0,0,0.6729,0.6799,0.6742,0.6818,0.6756,0.6817,0.6775,0.682,0.6843,0.6811,0.6941,0.6944,0.7,0.7027,0.7073,0.7119,0.714,0,0,0.6828,0.6811,0.6854,0.6804,0.688,0.6811,0.6895,0.6899,0.6884,0.6925,0.6928,0.7006,0.703,0.7076,0.7252,0.7269,0,0,0,0.6892,0.6923,0.6939,0.6962,0.6967,0.6973,0.6962,0.6964,0.6998,0.6909,0.7035,0.7049,0.7075,0.7096,0.7111,0.7132,0.6954,0.6954,0.6954,0.7059,0.7035,0.7105,0.7084,0.7108,0.7095,0.7112,0.7111,0.7081,0.7111,0.7123,0.7233,0.7258,0.7269,0.7291,0.7146,0.7146,0.7146,0.7146,0.7202,0.7242,0.7199,0.7251,0.7225,0.7268,0.7259,0.7236,0.7272,0.7222,0.7244,0.7191,0.7288,0.7306,0.7151,0.715,0.715,0.7149,0.7149,0.7308,0.7323,0.7324,0.7354,0.7381,0.7358,0.7394,0.737,0.7347,0.7369,0.7378,0.7377,0.7372,0.7375,0.7375,0.7376,0.7376,0.7376,0.7377,0.7419,0.7417,0.7451,0.7461,0.7472,0.7484,0.7472,0.7483,0.7488,0.7467,0.7467,0.7433,0.7303,0.727,0.7382,0.7381,0.7381,0.738,0.738,0.7571,0.7533,0.7585,0.7597,0.7606,0.7634,0.7602,0.7625,0.763,0.7649,0.7611,0.7518,0.75,0.7488,0.7461,0.7616,0.7616,0.7616,0.7616,0.7661,0.7649,0.7696,0.7716,0.7733,0.7709,0.7769,0.776,0.7745,0.7746,0.772,0.7682,0.7671,0.7659,0.7644,0.7618,0.781,0.781,0.781,0.7753,0.7741,0.7797,0.7781,0.7787,0.7792,0.7847,0.7872,0.7846,0.7818,0.7747,0.7739,0.7677,0.7658,0.7628,0.7604,0.7556,0,0]},{"header":{"parameterUnit":"m.s-1","parameterCategory":1,"la1":30.2992,"la2":30.254,"lo1":-89.0895,"lo2":-89.0443,"dy":0.0025,"dx":0.0025,"nx":19,"ny":19,"refTime":"2026-03-19T09:00:00:Z","depth":0,"parameterNumber":3,"parameterNumberName":"V-component_of_WINDS"},"data":[0,0,0,-0.9917,-0.9918,-0.9976,-0.9977,-1.0035,-1.0036,0,0,0,0,0,0,0,0,0,0,0,-0.9889,-0.9889,-0.9917,-0.9918,-0.9976,-0.9977,-1.0035,-1.0036,0,0,0,0,0,0,0,0,0,0,0,-0.9889,-0.9889,-0.9889,-0.9918,-0.9976,-0.9977,-1.0035,-0.9997,0,0,0,0,0,0,0,0,0,0,-0.9943,-0.9907,-0.9889,-0.9889,-0.9918,-0.9976,-0.9977,-0.9996,-1.0,-1.0002,0,-1.0,0,-1.0019,-1.0039,-1.0039,0,0,0,-0.9926,-0.9903,-0.9929,-0.9889,-0.9919,-0.9976,-0.9952,-0.9998,-1.0002,-1.0007,-1.0001,-1.0004,-1.002,-1.0039,-1.0039,-1.0023,-1.0022,0,0,-0.9923,-0.9894,-0.9925,-0.9931,-0.992,-0.995,-0.9954,-1.0001,-0.9993,-1.0001,-1.0006,-1.0021,-1.0039,-1.004,-1.0023,-1.0023,0,0,0,-0.9908,-0.9891,-0.9916,-0.9928,-0.994,-0.9952,-0.9956,-0.9991,-1.0001,-1.0006,-1.0021,-1.0039,-1.004,-1.0024,-1.0023,-0.997,0,0,0,-0.9907,-0.9883,-0.9914,-0.9897,-0.9938,-0.9966,-0.9945,-0.9998,-1.0004,-1.0021,-1.0039,-1.004,-1.0024,-1.0023,-0.9973,-0.995,0,0,0,-0.9889,-0.9881,-0.9885,-0.9895,-0.9919,-0.9966,-0.9979,-1.0,-1.0013,-1.0039,-1.0041,-1.0025,-1.0024,-0.9975,-0.9954,-0.9936,0,0,0,-0.9861,-0.9838,-0.9884,-0.9864,-0.9918,-0.9933,-0.9979,-0.9992,-1.0008,-1.004,-1.0024,-1.0023,-0.9976,-0.9956,-0.9938,-0.9915,-0.9902,0,0,-0.9816,-0.9832,-0.9823,-0.9865,-0.9864,-0.9926,-0.9918,-0.9961,-0.9991,-1.0011,-1.0011,-0.9972,-0.9954,-0.9937,-0.9847,-0.9837,0,0,0,-0.9798,-0.9791,-0.9797,-0.981,-0.9842,-0.9868,-0.9915,-0.9931,-0.9949,-0.9995,-0.9963,-0.9953,-0.9944,-0.9934,-0.9925,-0.9919,-1.0018,-1.0018,-1.0018,-0.969,-0.973,-0.9717,-0.9763,-0.9776,-0.9825,-0.9839,-0.9869,-0.9906,-0.9898,-0.9903,-0.9844,-0.9831,-0.9825,-0.9818,-0.9895,-0.9895,-0.9895,-0.9895,-0.9626,-0.9621,-0.9671,-0.9676,-0.9718,-0.9723,-0.9771,-0.9797,-0.9808,-0.9843,-0.9837,-0.987,-0.9812,-0.9808,-0.9891,-0.9892,-0.9892,-0.9893,-0.9893,-0.9558,-0.9563,-0.9583,-0.9606,-0.962,-0.967,-0.9678,-0.9717,-0.9754,-0.9748,-0.9758,-0.9759,-0.9763,-0.975,-0.975,-0.975,-0.975,-0.975,-0.9749,-0.9479,-0.9503,-0.9505,-0.9537,-0.9551,-0.9575,-0.9625,-0.9641,-0.9667,-0.9695,-0.9695,-0.9732,-0.98,-0.9815,-0.9746,-0.9747,-0.9747,-0.9748,-0.9748,-0.9396,-0.9421,-0.9423,-0.9437,-0.9479,-0.949,-0.9541,-0.9569,-0.9587,-0.959,-0.9629,-0.9674,-0.9693,-0.97,-0.9712,-0.9621,-0.9621,-0.9621,-0.9621,-0.9337,-0.9351,-0.9362,-0.9382,-0.9406,-0.9452,-0.9454,-0.9494,-0.9539,-0.9554,-0.9573,-0.9594,-0.96,-0.9616,-0.9625,-0.9637,-0.9529,-0.9528,-0.9528,-0.9287,-0.9306,-0.9299,-0.9343,-0.9379,-0.9409,-0.9413,-0.9435,-0.9492,-0.9525,-0.9565,-0.9569,-0.9604,-0.9613,-0.9645,-0.9658,-0.9682,0,0]}]]